Location: Oberwangen
(47.4286°N, 8.9679°E)
Time: 07:50:55
(UTC+00:00)

Cosmos 1447 Rocket - Pass Details

Date: 27 October 2021
Orbit: 953 x 996 km, 82.9° (Epoch: 27 November)

Event Time Altitude Azimuth Distance (km) Brightness Sun altitude
Rises 18:19:39 0° 347° (NNW) 3,643 7.7 -21.7°
Reaches altitude 10° 18:22:12 10° 344° (NNW) 2,693 7.1 -22.1°
Maximum altitude 18:28:10 56° 268° (W) 1,126 5.1 -23.1°
Drops below altitude 10° 18:34:08 10° 192° (SSW) 2,684 6.8 -24.1°
Sets 18:36:40 0° 188° (S) 3,630 7.5 -24.5°
